FW6320 Weather Reports


Display with metric or nautical units.
time (UTC)temp
F
wind
direction
speed
MPH
gust
MPH
rain 1hr
in
rain 24hr
in
rain mn
in
humidity
%
barometer
mb
20260504231537 79 124 6.0 13.0 0.00 0.00 0.00 65 1005.6
20260504231019 79 122 7.0 13.0 0.00 0.00 0.00 64 1005.5
20260504230523 79 121 4.0 11.0 0.00 0.00 0.00 65 1005.5
20260504230043 80 128 5.0 12.0 0.00 0.00 0.00 64 1005.5
20260504225520 80 139 6.0 15.0 0.00 0.00 0.00 63 1005.7
20260504225017 80 136 6.0 16.0 0.00 0.00 0.00 63 1005.8
20260504224536 81 140 9.0 16.0 0.00 0.00 0.00 62 1005.9
20260504224017 81 148 9.0 17.0 0.00 0.00 0.00 62 1005.8
20260504223517 81 119 9.0 17.0 0.00 0.00 0.00 62 1005.6
20260504223034 81 144 9.0 16.0 0.00 0.00 0.00 62 1005.9
20260504222517 81 141 9.0 16.0 0.00 0.00 0.00 61 1005.8
20260504222022 81 143 9.0 16.0 0.00 0.00 0.00 61 1005.8
20260504221538 81 146 6.0 15.0 0.00 0.00 0.00 62 1005.8
20260504221022 81 149 6.0 16.0 0.00 0.00 0.00 62 1005.8
20260504220520 81 148 8.0 20.0 0.00 0.00 0.00 61 1005.9
20260504220038 81 114 9.0 20.0 0.00 0.00 0.00 61 1005.9
20260504215520 81 111 7.0 21.0 0.00 0.00 0.00 61 1006.1
20260504215020 81 146 9.0 21.0 0.00 0.00 0.00 62 1006.1
20260504214542 81 116 8.0 13.0 0.00 0.00 0.00 62 1006.1
20260504214019 81 88 7.0 13.0 0.00 0.00 0.00 62 1006.2
20260504213518 81 151 8.0 24.0 0.00 0.00 0.00 61 1006.3
20260504213041 81 122 9.0 24.0 0.00 0.00 0.00 62 1006.4
20260504212520 81 144 6.0 20.0 0.00 0.00 0.00 63 1006.5
20260504212019 81 127 10.0 20.0 0.00 0.00 0.00 60 1006.8
20260504211542 81 146 9.0 20.0 0.00 0.00 0.00 61 1006.9
20260504211019 81 175 6.0 18.0 0.00 0.00 0.00 62 1006.9
20260504210522 81 151 9.0 18.0 0.00 0.00 0.00 62 1006.9
20260504210050 81 115 7.0 16.0 0.00 0.00 0.00 61 1007.0
20260504205518 80 143 6.0 17.0 0.00 0.00 0.00 62 1007.1
20260504205019 80 159 10.0 17.0 0.00 0.00 0.00 62 1007.1
20260504204543 80 113 7.0 13.0 0.00 0.00 0.00 62 1007.3
20260504204019 80 153 6.0 13.0 0.00 0.00 0.00 62 1007.5
20260504203520 80 103 6.0 14.0 0.00 0.00 0.00 63 1007.6
20260504203039 80 142 7.0 14.0 0.00 0.00 0.00 63 1007.6
20260504202519 80 79 6.0 18.0 0.00 0.00 0.00 63 1007.7
20260504202018 80 132 9.0 19.0 0.00 0.00 0.00 61 1007.7
20260504201536 80 137 10.0 19.0 0.00 0.00 0.00 62 1007.8
20260504201018 80 120 9.0 15.0 0.00 0.00 0.00 61 1008.0
20260504200518 80 123 6.0 18.0 0.00 0.00 0.00 63 1007.9
20260504200049 80 161 7.0 18.0 0.00 0.00 0.00 62 1008.2
20260504195521 80 111 10.0 18.0 0.00 0.00 0.00 61 1008.5
20260504195019 80 115 7.0 18.0 0.00 0.00 0.00 63 1008.6
20260504194538 80 115 6.0 14.0 0.00 0.00 0.00 62 1008.7
20260504194018 79 150 6.0 14.0 0.00 0.00 0.00 64 1008.7
20260504193521 79 115 6.0 14.0 0.00 0.00 0.00 62 1008.8
20260504193039 79 114 6.0 16.0 0.00 0.00 0.00 62 1008.7
20260504192518 79 165 7.0 17.0 0.00 0.00 0.00 63 1009.0
20260504192019 79 138 8.0 17.0 0.00 0.00 0.00 62 1008.9
20260504191537 79 136 8.0 17.0 0.00 0.00 0.00 62 1009.0
20260504191023 79 118 8.0 16.0 0.00 0.00 0.00 63 1009.1
20260504190522 78 150 9.0 16.0 0.00 0.00 0.00 64 1009.2
20260504190035 79 95 6.0 14.0 0.00 0.00 0.00 63 1009.3
20260504185518 79 136 7.0 17.0 0.00 0.00 0.00 64 1009.3
20260504185022 78 141 6.0 17.0 0.00 0.00 0.00 64 1009.5
20260504184539 78 126 10.0 17.0 0.00 0.00 0.00 64 1009.5
20260504184018 78 157 5.0 15.0 0.00 0.00 0.00 66 1009.6
20260504183520 77 150 7.0 18.0 0.00 0.00 0.00 64 1009.6
20260504183036 76 152 8.0 18.0 0.00 0.00 0.00 65 1009.6
20260504182519 76 146 10.0 16.0 0.00 0.00 0.00 65 1009.6
20260504182021 77 138 7.0 19.0 0.00 0.00 0.00 64 1009.8
20260504181538 76 140 8.0 19.0 0.00 0.00 0.00 65 1009.8
20260504181017 76 144 7.0 19.0 0.00 0.00 0.00 64 1009.9
20260504180518 76 146 7.0 19.0 0.00 0.00 0.00 65 1010.0
20260504180037 76 206 9.0 20.0 0.00 0.00 0.00 66 1010.1
20260504175518 76 136 10.0 20.0 0.00 0.00 0.00 65 1010.1
20260504175016 75 143 12.0 20.0 0.00 0.00 0.00 64 1010.3
20260504174535 75 153 9.0 20.0 0.00 0.00 0.00 66 1010.3
20260504174021 75 117 10.0 20.0 0.00 0.00 0.00 64 1010.1
20260504173517 75 150 8.0 20.0 0.00 0.00 0.00 67 1010.4
20260504173034 74 144 8.0 20.0 0.00 0.00 0.00 66 1010.4
20260504172519 75 117 11.0 18.0 0.00 0.00 0.00 64 1010.5
20260504172017 74 129 6.0 15.0 0.00 0.00 0.00 68 1010.6
20260504171535 74 155 6.0 16.0 0.00 0.00 0.00 69 1010.8
20260504171017 74 140 9.0 16.0 0.00 0.00 0.00 68 1010.8
20260504170517 73 141 9.0 19.0 0.00 0.00 0.00 66 1010.7
20260504151021 69 141 9.0 23.0 0.00 0.00 0.00 69 1012.0
20260504150516 69 138 11.0 23.0 0.00 0.00 0.00 69 1012.1
20260504141022 66 128 11.0 19.0 0.00 0.00 0.00 73 1012.3
20260504140519 66 144 8.0 18.0 0.00 0.00 0.00 74 1012.4
20260504130516 63 146 4.0 10.0 0.00 0.00 0.00 77 1012.6
20260504110520 60 142 4.0 9.0 0.00 0.00 0.00 77 1012.3
20260504100520 61 142 5.0 10.0 0.00 0.00 0.00 73 1012.5
20260504081543 59 0 0.0 0.0 0.00 0.00 0.00 73 1013.0
20260504081018 59 0 0.0 0.0 0.00 0.00 0.00 73 1013.1
20260504080524 59 0 0.0 0.0 0.00 0.00 0.00 73 1013.3
20260504050520 63 0 0.0 0.0 0.00 0.00 0.00 65 1015.3
20260504045519 63 0 0.0 0.0 0.00 0.00 0.00 65 1015.4
20260504045025 63 0 0.0 0.0 0.00 0.00 0.00 65 1015.4
20260504044532 63 0 0.0 0.0 0.00 0.00 0.00 65 1015.4
20260504044021 63 0 0.0 0.0 0.00 0.00 0.00 65 1015.4
20260504043518 63 0 0.0 0.0 0.00 0.00 0.00 64 1015.4
20260504043100 64 0 0.0 2.0 0.00 0.00 0.00 64 1015.5
20260504042521 64 0 0.0 3.0 0.00 0.00 0.00 63 1015.6
20260504042020 64 0 0.0 3.0 0.00 0.00 0.00 62 1015.6
20260504041541 64 116 1.0 3.0 0.00 0.00 0.00 62 1015.6
20260504041020 64 116 0.0 2.0 0.00 0.00 0.00 61 1015.7
20260504040519 65 116 0.0 3.0 0.00 0.00 0.00 61 1015.7
20260504040042 65 130 0.0 3.0 0.00 0.00 0.00 61 1015.7
20260504035520 65 131 1.0 3.0 0.00 0.00 0.00 60 1015.6
20260504035019 65 129 1.0 3.0 0.00 0.00 0.00 60 1015.6
20260504034546 65 0 0.0 3.0 0.00 0.00 0.00 60 1015.7
20260504034017 65 125 1.0 3.0 0.00 0.00 0.00 60 1015.5
20260504033520 65 125 1.0 3.0 0.00 0.00 0.00 60 1015.5
20260504033035 65 134 0.0 2.0 0.00 0.00 0.00 61 1015.5
20260504032519 65 134 0.0 2.0 0.00 0.00 0.00 60 1015.5
20260504032018 65 0 0.0 2.0 0.00 0.00 0.00 60 1015.5
20260504031549 65 0 0.0 2.0 0.00 0.00 0.00 60 1015.5
20260504031018 65 0 0.0 2.0 0.00 0.00 0.00 60 1015.6
20260504030520 65 0 0.0 1.0 0.00 0.00 0.00 59 1015.5
20260504030100 66 0 0.0 0.0 0.00 0.00 0.00 59 1015.4
20260504025517 66 0 0.0 0.0 0.00 0.00 0.00 58 1015.4
20260504025021 66 0 0.0 2.0 0.00 0.00 0.00 58 1015.4
20260504024539 66 0 0.0 2.0 0.00 0.00 0.00 57 1015.4
20260504024019 67 0 0.0 3.0 0.00 0.00 0.00 56 1015.4
20260504023517 68 0 0.0 3.0 0.00 0.00 0.00 55 1015.3
20260504023036 68 0 1.0 4.0 0.00 0.00 0.00 54 1015.3
20260504022517 68 127 1.0 4.0 0.00 0.00 0.00 54 1015.3
20260504022015 68 119 1.0 4.0 0.00 0.00 0.00 54 1015.2
20260504021544 68 108 0.0 3.0 0.00 0.00 0.00 54 1015.3
20260504021017 68 0 0.0 3.0 0.00 0.00 0.00 55 1015.2
20260504020516 68 0 0.0 4.0 0.00 0.00 0.00 54 1015.1
20260504020038 69 0 0.0 4.0 0.00 0.00 0.00 53 1015.2
20260504015518 69 0 0.0 6.0 0.00 0.00 0.00 53 1015.1
20260504015020 69 103 1.0 6.0 0.00 0.00 0.00 53 1015.2
20260504014534 69 111 0.0 4.0 0.00 0.00 0.00 53 1015.2
20260504014017 69 0 0.0 5.0 0.00 0.00 0.00 53 1015.1
20260504013517 69 0 0.0 5.0 0.00 0.00 0.00 54 1015.0
20260504013047 69 0 0.0 3.0 0.00 0.00 0.00 53 1014.9
20260504012518 70 117 0.0 3.0 0.00 0.00 0.00 54 1014.9
20260504012017 70 0 0.0 3.0 0.00 0.00 0.00 53 1014.9
20260504011536 70 137 0.0 2.0 0.00 0.00 0.00 53 1014.8
20260504011021 71 130 0.0 2.0 0.00 0.00 0.00 52 1014.8
20260504010516 71 0 0.0 2.0 0.00 0.00 0.00 52 1014.9
20260504010036 71 0 0.0 3.0 0.00 0.00 0.00 51 1014.7
20260504005517 72 0 0.0 3.0 0.00 0.00 0.00 49 1014.7
20260504005016 72 133 1.0 4.0 0.00 0.00 0.00 48 1014.8
20260504004542 73 130 0.0 6.0 0.00 0.00 0.00 48 1014.8
20260504004019 73 144 1.0 6.0 0.00 0.00 0.00 47 1014.7
20260504003516 74 155 1.0 6.0 0.00 0.00 0.00 47 1014.6
20260504003034 74 146 1.0 6.0 0.00 0.00 0.00 46 1014.7
20260504002516 75 142 1.0 5.0 0.00 0.00 0.00 46 1014.9
20260504002016 76 0 2.0 7.0 0.00 0.00 0.00 45 1014.9
20260504001538 76 144 2.0 7.0 0.00 0.00 0.00 43 1014.9
20260504001015 76 138 2.0 7.0 0.00 0.00 0.00 42 1015.0
20260504000517 77 142 3.0 7.0 0.00 0.00 0.00 42 1015.0
20260504000031 77 140 3.0 8.0 0.00 0.00 0.00 41 1015.0
20260503235519 77 145 4.0 9.0 0.00 0.00 0.00 41 1015.0
20260503235017 77 151 4.0 9.0 0.00 0.00 0.00 41 1015.1
20260503234539 77 136 5.0 10.0 0.00 0.00 0.00 40 1015.1
20260503234017 78 142 4.0 11.0 0.00 0.00 0.00 40 1015.2
20260503233519 78 152 5.0 11.0 0.00 0.00 0.00 41 1015.2
20260503233036 78 151 3.0 10.0 0.00 0.00 0.00 40 1015.3
20260503232518 78 144 5.0 10.0 0.00 0.00 0.00 40 1015.2
20260503232018 78 124 6.0 10.0 0.00 0.00 0.00 40 1015.2